Regional Weather Roundup
Issued by NWS Upton, NY

Current Version | Previous Version | Text Only | Print | Product List | Glossary Off
Versions: 1 2 3 4 5 6 7 8 9 10 11 12 13 14 15 16 17 18 19 20 21 22 23 24 25 26 27 28 29 30 31 32 33 34 35 36 37 38 39 40 41 42 43 44 45 46 47 48 49 50
000 ASUS41 KOKX 201705 RWROKX REGIONAL WEATHER ROUNDUP NATIONAL WEATHER SERVICE NEW YORK NY 100 PM EDT MON OCT 20 2014 NOTE: "FAIR" INDICATES FEW OR NO CLOUDS BELOW 12,000 FEET WITH NO SIGNIFICANT WEATHER AND/OR OBSTRUCTIONS TO VISIBILITY. NYZ071-072-176-178-NJZ106-104-201800- NEW YORK CITY METRO AREA CITY SKY/WX TMP DP RH WIND PRES REMARKS CENTRAL PARK MOSUNNY 56 33 42 VRB5 30.09F LAGUARDIA APRT PTSUNNY 54 32 43 S10 30.06F KENNEDY INTL PTSUNNY 56 34 43 SW10 30.08F NEWARK/LIBERTY PTSUNNY 57 36 45 SW10 30.07F BRNX BOT. GARD N/A 57 32 38 SW6 30.08S TETERBORO MOSUNNY 56 32 40 S13 30.05F $$ NYZ177-179-078>081-201800- LONG ISLAND NEW YORK CITY SKY/WX TMP DP RH WIND PRES REMARKS FARMINGDALE PTSUNNY 55 36 48 SW12 30.07F ISLIP PTSUNNY 55 36 48 SW18 30.05F SHIRLEY PTSUNNY 54 38 54 SW13 30.07F WESTHAMPTON PTSUNNY 53 35 50 W10 30.08F MONTAUK POINT N/A 54 36 50 SW7 30.07F $$ NYZ052-065-067-201800- HUDSON VALLEY CITY SKY/WX TMP DP RH WIND PRES REMARKS WHITE PLAINS PTSUNNY 54 33 45 S8 30.05F NEWBURGH PTSUNNY 54 36 50 W9G21 30.04F MONTGOMERY CLOUDY 56 34 43 SW14G20 30.01F POUGHKEEPSIE CLOUDY 54 33 45 S6 30.03F ALBANY PTSUNNY 52 34 50 S8 29.98F $$ NJZ001-105-106-008-010-013-015-019>022-104-201800- NEW JERSEY CITY SKY/WX TMP DP RH WIND PRES REMARKS NEWARK/LIBERTY PTSUNNY 57 36 45 SW10 30.07F TETERBORO MOSUNNY 56 32 40 S13 30.05F CALDWELL MOSUNNY 55 32 41 VRB6 30.07F MORRISTOWN PTSUNNY 55 36 47 SW12 30.06F SOMERVILLE MOSUNNY 55 35 47 VRB5 30.06F SUSSEX MOSUNNY 57 35 43 SW9 30.02F ANDOVER N/A 54 34 46 VRB7 30.04F TRENTON MOSUNNY 58 36 43 SW15 30.06F MILLVILLE PTSUNNY 59 36 42 VRB6 30.08F ATLANTIC CITY PTSUNNY 61 36 39 S10 30.08F WRIGHTSTOWN MOSUNNY 60 36 41 SW10 30.05F TOMS RIVER MOSUNNY 61 36 39 S8 30.08F BELMAR MOSUNNY 59 36 41 SW7 30.06F $$ PAZ047>061-062-071-201800- EASTERN PENNSYLVANIA CITY SKY/WX TMP DP RH WIND PRES REMARKS PHILADELPHIA PTSUNNY 60 36 40 S13 30.06F ALLENTOWN PTSUNNY 54 35 48 SW7 30.05F SCRANTON CLOUDY 49 33 54 CALM 29.99F $$ CTZ002-004>006-009-010-012-RIZ004-006-007-MAZ004-011-015-201800- SOUTHERN NEW ENGLAND IN CT CITY SKY/WX TMP DP RH WIND PRES REMARKS BRADLEY INTL PTSUNNY 54 31 41 S7 30.01F HARTFORD MOSUNNY 53 33 46 SW14G23 30.03F DANBURY CLOUDY 50 30 46 W9 30.06F WTRBRY/OXFORD PTSUNNY 52 34 50 W6 30.04F BRIDGEPORT PTSUNNY 54 36 50 SW13 30.06F MERIDEN PTSUNNY 54 34 46 S10 30.04F NEW HAVEN PTSUNNY 54 38 54 SW9G16 30.06F CHESTER FAIR 50 34 53 SW8 30.05F GROTON PTSUNNY 51 39 63 SW14 30.05F WILLIMANTIC MOSUNNY 54 31 41 SW10G17 30.03F IN RI CITY SKY/WX TMP DP RH WIND PRES REMARKS PROVIDENCE PTSUNNY 52 32 46 W6G18 30.04F BLOCK ISLAND MOSUNNY 54 34 47 SW13 30.06F WESTERLY MOSUNNY 53 40 61 SW9G21 30.06F IN MA CITY SKY/WX TMP DP RH WIND PRES REMARKS BOSTON MOSUNNY 54 30 40 W18 30.01F WORCESTER SUNNY 49 31 49 W12 30.00F WESTFIELD SUNNY 55 32 41 SW7 30.00F PROVINCETOWN SUNNY 54 30 40 W12 30.03F NANTUCKET SUNNY 53 37 54 W15G23 30.05F $$ ANZ330-335-338-340-345-350-353-355-201800- COASTAL MARINE OBSERVATIONS STATION/POSITION TIME SKY/WX TEMP WIND PRES VSBY WAVE AIR SEA DIR/SP/G HT/PER (UTC) (F) (DEG/KT/KT) (MB) (MI) (FT/S) NY HARB ENTRANCE NOT AVBL 4S FIRE IS 1700 64 N/A 2/10 20S FIRE ISLAND 1700 54 64 230/ 14/ 16 1018.8 2/11 23SW MTP 1700 N/A 2/10 HUDSON CANYON 1700 55 66 230/ 10/ 14 1019.6 3/11 EXECUTION ROCKS 1700 56 64 230/ 12/ 19 N/A WESTERN LI SOUND 1700 54 200/ 12/ 16 N/A 1 CENTRAL LI SOUND 1600 51 64 250/ 14/ 19 N/A 2/ 3 EASTERN LI SOUND 1600 52 64 240/ 14/ 19 N/A ROBBINS REEF 1700 53 190/ 11/ 14 1017.1 $$ >>>>>>>>>>>>>>>>>>>>>>>>>>>> KEY <<<<<<<<<<<<<<<<<<<<<<<<<<< > < > SKY/WX - SKY CONDITION/PRESENT WEATHER < > TMP - TEMPERATURE IN FAHRENHEIT < > DP - DEWPOINT IN FAHRENHEIT < > RH - RELATIVE HUMIDITY IN PERCENT < > WIND - DIRECTION AND SPEED IN MPH < > PRES - MEAN SEA LEVEL PRESSURE IN INCHES OF HG < > WCI - WIND CHILL INDEX < > VSB - VISIBILITY IN MILES < > HX - HEAT INDEX < > TC - TEMPERATURE IN CELSIUS < > VRB - VARIABLE WIND DIRECTION < > < >>>>>>>>>>>>>>>>>>>>>>>>>>>> KEY <<<<<<<<<<<<<<<<<<<<<<<<<<<

USA.gov is the U.S. government's official web portal to all federal, state and local government web resources and services.